Starlink 36174

operational
NORAD ID: 67166 Int'l Des: 2025-303 Owner: SPXS Country: US Constellation: starlink
LEOCIRCULAR

About Starlink 36174

Description loading...

Live Position

Loading 3D Globe...

Upcoming Passes

Altitude History

Altitude vs Time

uPlot chart will show altitude changes over time

Two-Line Element Set

1 67166C 25303D 25352.76854167 .00673700 00000+0 99779-3 0 3529
2 67166 43.0046 61.7782 0007385 288.9794 265.4436 16.03194680 15
Epoch: Dec 18, 2025 • Age: 54 hours

Current Status

Altitude 265.3 km
Velocity 7.75 km/s
Sub-Earth Point 40.12°N, 59.55°W
Launch Date Dec 17, 2025
Age 2 days
Type internet

Technical Details

Classification Payload
Mass 575.00 kg
Dry Mass 530.00 kg
Total Mass 575.00 kg
Length 0.30 m
Diameter 4.10 m
Span 29.00 m
Shape Box + pan
Manufacturer SPXS
Bus Type Starlink V2MO
Phase Status In Orbit
Owner/State SPXS/US

Large Constellations

Loading constellations...